contact:dominique.lefevre@mio.osupytheas.fr, maurice.libes@osupytheas.fr, didier.mallarino@osupytheas.fr
Project:EMSO http://www.emso-fr.org/EMSO-France
Depth: 2436.0 m
Title:EMSO Ligure Ouest : Data MII capteur MICROCAT
DateTime_Computer,Latitude,Longitude,Temperature,Conductivity,Pressure,DateTime_Instrument
DateTime_Computer,Latitude,Longitude,degC,S m-1,dbar,DateTime_Instrument
2022-07-02T00:01:04Z,42.805,6.029,13.3025,4.60093,2470.637,2022-7-02T02:02:49Z
2022-07-02T00:04:07Z,42.805,6.029,13.3014,4.60105,2470.6,2022-7-02T02:05:52Z
2022-07-02T00:07:10Z,42.805,6.029,13.3015,4.60062,2470.637,2022-7-02T02:08:55Z
2022-07-02T00:10:13Z,42.805,6.029,13.3021,4.60072,2470.6,2022-7-02T02:11:58Z
2022-07-02T00:13:17Z,42.805,6.029,13.3021,4.60093,2470.646,2022-7-02T02:15:02Z
2022-07-02T00:16:20Z,42.805,6.029,13.3024,4.60074,2470.646,2022-7-02T02:18:05Z
2022-07-02T00:19:23Z,42.805,6.029,13.3022,4.60092,2470.624,2022-7-02T02:21:08Z
2022-07-02T00:22:26Z,42.805,6.029,13.3018,4.60105,2470.637,2022-7-02T02:24:11Z
2022-07-02T00:25:29Z,42.805,6.029,13.3026,4.60096,2470.624,2022-7-02T02:27:14Z
2022-07-02T00:28:32Z,42.805,6.029,13.3022,4.60104,2470.6,2022-7-02T02:30:17Z
2022-07-02T00:31:35Z,42.805,6.029,13.3032,4.60111,2470.6,2022-7-02T02:33:20Z
2022-07-02T00:34:38Z,42.805,6.029,13.3019,4.60079,2470.614,2022-7-02T02:36:23Z
2022-07-02T00:37:41Z,42.805,6.029,13.3013,4.60085,2470.637,2022-7-02T02:39:26Z
2022-07-02T00:40:45Z,42.805,6.029,13.3019,4.60067,2470.624,2022-7-02T02:42:30Z
2022-07-02T00:43:48Z,42.805,6.029,13.3021,4.60087,2470.693,2022-7-02T02:45:33Z
2022-07-02T00:46:51Z,42.805,6.029,13.3031,4.60080,2470.637,2022-7-02T02:48:36Z
2022-07-02T00:49:54Z,42.805,6.029,13.3014,4.60084,2470.614,2022-7-02T02:51:39Z
2022-07-02T00:52:57Z,42.805,6.029,13.3014,4.60075,2470.614,2022-7-02T02:54:42Z
2022-07-02T00:56:00Z,42.805,6.029,13.3022,4.60096,2470.6,2022-7-02T02:57:45Z
2022-07-02T00:59:03Z,42.805,6.029,13.3025,4.60113,2470.6,2022-7-02T03:00:48Z
2022-07-02T01:02:06Z,42.805,6.029,13.3021,4.60062,2470.637,2022-7-02T03:03:51Z
2022-07-02T01:05:10Z,42.805,6.029,13.3025,4.60079,2470.637,2022-7-02T03:06:55Z
2022-07-02T01:08:13Z,42.805,6.029,13.3024,4.60089,2470.591,2022-7-02T03:09:58Z
2022-07-02T01:11:16Z,42.805,6.029,13.3026,4.60106,2470.577,2022-7-02T03:13:01Z
2022-07-02T01:14:19Z,42.805,6.029,13.3014,4.60074,2470.577,2022-7-02T03:16:04Z
2022-07-02T01:17:22Z,42.805,6.029,13.3021,4.60101,2470.6,2022-7-02T03:19:07Z
2022-07-02T01:20:25Z,42.805,6.029,13.3026,4.60102,2470.577,2022-7-02T03:22:10Z
2022-07-02T01:23:28Z,42.805,6.029,13.3021,4.60106,2470.577,2022-7-02T03:25:13Z
2022-07-02T01:26:31Z,42.805,6.029,13.3026,4.60070,2470.591,2022-7-02T03:28:16Z
2022-07-02T01:29:34Z,42.805,6.029,13.3039,4.60092,2470.577,2022-7-02T03:31:19Z
2022-07-02T01:32:38Z,42.805,6.029,13.3031,4.60059,2470.6,2022-7-02T03:34:23Z
2022-07-02T01:35:41Z,42.805,6.029,13.3025,4.60066,2470.577,2022-7-02T03:37:26Z
2022-07-02T01:38:44Z,42.805,6.029,13.3015,4.60083,2470.591,2022-7-02T03:40:29Z
2022-07-02T01:41:47Z,42.805,6.029,13.3026,4.60110,2470.553,2022-7-02T03:43:32Z
2022-07-02T01:44:50Z,42.805,6.029,13.3027,4.60077,2470.553,2022-7-02T03:46:35Z
2022-07-02T01:47:53Z,42.805,6.029,13.3024,4.60082,2470.567,2022-7-02T03:49:38Z
2022-07-02T01:50:56Z,42.805,6.029,13.3023,4.60106,2470.553,2022-7-02T03:52:41Z
2022-07-02T01:53:59Z,42.805,6.029,13.3023,4.60099,2470.544,2022-7-02T03:55:44Z
2022-07-02T01:57:03Z,42.805,6.029,13.3028,4.60097,2470.567,2022-7-02T03:58:48Z
2022-07-02T02:00:06Z,42.805,6.029,13.3040,4.60094,2470.553,2022-7-02T04:01:51Z
2022-07-02T02:03:09Z,42.805,6.029,13.3025,4.60102,2470.577,2022-7-02T04:04:54Z
2022-07-02T02:06:12Z,42.805,6.029,13.3033,4.60075,2470.553,2022-7-02T04:07:57Z
2022-07-02T02:09:15Z,42.805,6.029,13.3024,4.60077,2470.591,2022-7-02T04:11:00Z
2022-07-02T02:12:18Z,42.805,6.029,13.3033,4.60061,2470.553,2022-7-02T04:14:03Z
2022-07-02T02:15:21Z,42.805,6.029,13.3034,4.60084,2470.567,2022-7-02T04:17:06Z
2022-07-02T02:18:24Z,42.805,6.029,13.3029,4.60112,2470.591,2022-7-02T04:20:09Z
2022-07-02T02:21:27Z,42.805,6.029,13.3018,4.60059,2470.553,2022-7-02T04:23:12Z
2022-07-02T02:24:31Z,42.805,6.029,13.3023,4.60068,2470.577,2022-7-02T04:26:16Z
2022-07-02T02:27:34Z,42.805,6.029,13.3029,4.60064,2470.53,2022-7-02T04:29:19Z
2022-07-02T02:30:37Z,42.805,6.029,13.3029,4.60072,2470.567,2022-7-02T04:32:22Z
2022-07-02T02:33:40Z,42.805,6.029,13.3009,4.60050,2470.6,2022-7-02T04:35:25Z
2022-07-02T02:36:43Z,42.805,6.029,13.3012,4.60040,2470.53,2022-7-02T04:38:28Z
2022-07-02T02:39:46Z,42.805,6.029,13.3029,4.60069,2470.567,2022-7-02T04:41:31Z
2022-07-02T02:42:49Z,42.805,6.029,13.3032,4.60045,2470.53,2022-7-02T04:44:34Z
2022-07-02T02:45:52Z,42.805,6.029,13.3021,4.60039,2470.507,2022-7-02T04:47:37Z
2022-07-02T02:48:55Z,42.805,6.029,13.3031,4.60058,2470.544,2022-7-02T04:50:41Z
2022-07-02T02:51:59Z,42.805,6.029,13.3018,4.60042,2470.53,2022-7-02T04:53:44Z
2022-07-02T02:55:02Z,42.805,6.029,13.3012,4.60045,2470.567,2022-7-02T04:56:47Z
2022-07-02T02:58:05Z,42.805,6.029,13.3026,4.60077,2470.52,2022-7-02T04:59:50Z
2022-07-02T03:01:08Z,42.805,6.029,13.3015,4.60042,2470.544,2022-7-02T05:02:53Z
2022-07-02T03:04:11Z,42.805,6.029,13.3002,4.60038,2470.53,2022-7-02T05:05:56Z
2022-07-02T03:07:14Z,42.805,6.029,13.3016,4.60056,2470.53,2022-7-02T05:08:59Z
2022-07-02T03:10:17Z,42.805,6.029,13.3029,4.60081,2470.493,2022-7-02T05:12:02Z
2022-07-02T03:13:20Z,42.805,6.029,13.3027,4.60093,2470.53,2022-7-02T05:15:05Z
2022-07-02T03:16:24Z,42.805,6.029,13.3017,4.60053,2470.544,2022-7-02T05:18:09Z
2022-07-02T03:19:27Z,42.805,6.029,13.3022,4.60048,2470.507,2022-7-02T05:21:12Z
2022-07-02T03:22:30Z,42.805,6.029,13.3026,4.60054,2470.516,2022-7-02T05:24:15Z
2022-07-02T03:25:33Z,42.805,6.029,13.3029,4.60052,2470.52,2022-7-02T05:27:18Z
2022-07-02T03:28:36Z,42.805,6.029,13.3034,4.60074,2470.567,2022-7-02T05:30:21Z
2022-07-02T03:31:39Z,42.805,6.029,13.3018,4.60044,2470.507,2022-7-02T05:33:24Z
2022-07-02T03:34:42Z,42.805,6.029,13.3007,4.60041,2470.507,2022-7-02T05:36:27Z
2022-07-02T03:37:45Z,42.805,6.029,13.3019,4.60058,2470.544,2022-7-02T05:39:30Z
2022-07-02T03:40:49Z,42.805,6.029,13.3011,4.60059,2470.483,2022-7-02T05:42:34Z
2022-07-02T03:43:52Z,42.805,6.029,13.3027,4.60064,2470.544,2022-7-02T05:45:37Z
2022-07-02T03:46:55Z,42.805,6.029,13.3031,4.60069,2470.483,2022-7-02T05:48:40Z
2022-07-02T03:49:58Z,42.805,6.029,13.3020,4.60045,2470.591,2022-7-02T05:51:43Z
2022-07-02T03:53:01Z,42.805,6.029,13.3024,4.60053,2470.53,2022-7-02T05:54:46Z
2022-07-02T03:56:04Z,42.805,6.029,13.3025,4.60055,2470.52,2022-7-02T05:57:49Z
2022-07-02T03:59:07Z,42.805,6.029,13.3012,4.60044,2470.553,2022-7-02T06:00:52Z
2022-07-02T04:02:10Z,42.805,6.029,13.3012,4.60042,2470.507,2022-7-02T06:03:55Z
2022-07-02T04:05:13Z,42.805,6.029,13.3026,4.60070,2470.52,2022-7-02T06:06:58Z
2022-07-02T04:08:17Z,42.805,6.029,13.3009,4.60038,2470.53,2022-7-02T06:10:02Z
2022-07-02T04:11:20Z,42.805,6.029,13.3008,4.60044,2470.507,2022-7-02T06:13:05Z
2022-07-02T04:14:23Z,42.805,6.029,13.3003,4.60041,2470.544,2022-7-02T06:16:08Z
2022-07-02T04:17:26Z,42.805,6.029,13.3008,4.60037,2470.544,2022-7-02T06:19:11Z
2022-07-02T04:20:29Z,42.805,6.029,13.3004,4.60038,2470.47,2022-7-02T06:22:14Z
2022-07-02T04:23:32Z,42.805,6.029,13.3011,4.60039,2470.507,2022-7-02T06:25:17Z
2022-07-02T04:26:35Z,42.805,6.029,13.3009,4.60047,2470.493,2022-7-02T06:28:20Z
2022-07-02T04:29:38Z,42.805,6.029,13.3008,4.60041,2470.53,2022-7-02T06:31:23Z
2022-07-02T04:32:41Z,42.805,6.029,13.3011,4.60038,2470.493,2022-7-02T06:34:27Z
2022-07-02T04:35:45Z,42.805,6.029,13.3007,4.60040,2470.483,2022-7-02T06:37:30Z
2022-07-02T04:38:48Z,42.805,6.029,13.3008,4.60037,2470.507,2022-7-02T06:40:33Z
2022-07-02T04:41:51Z,42.805,6.029,13.3013,4.60039,2470.507,2022-7-02T06:43:36Z
2022-07-02T04:44:54Z,42.805,6.029,13.3010,4.60039,2470.53,2022-7-02T06:46:39Z
2022-07-02T04:47:57Z,42.805,6.029,13.3023,4.60053,2470.544,2022-7-02T06:49:42Z
2022-07-02T04:51:00Z,42.805,6.029,13.3007,4.60042,2470.507,2022-7-02T06:52:45Z
2022-07-02T04:54:03Z,42.805,6.029,13.3003,4.60039,2470.507,2022-7-02T06:55:48Z
2022-07-02T04:57:06Z,42.805,6.029,13.3004,4.60038,2470.52,2022-7-02T06:58:51Z
2022-07-02T05:00:10Z,42.805,6.029,13.3005,4.60039,2470.53,2022-7-02T07:01:55Z
2022-07-02T05:03:13Z,42.805,6.029,13.3005,4.60038,2470.567,2022-7-02T07:04:58Z
2022-07-02T05:06:16Z,42.805,6.029,13.3004,4.60037,2470.553,2022-7-02T07:08:01Z
2022-07-02T05:09:19Z,42.805,6.029,13.3006,4.60039,2470.53,2022-7-02T07:11:04Z
2022-07-02T05:12:22Z,42.805,6.029,13.3009,4.60041,2470.567,2022-7-02T07:14:07Z
2022-07-02T05:15:25Z,42.805,6.029,13.3005,4.60040,2470.53,2022-7-02T07:17:10Z
2022-07-02T05:18:28Z,42.805,6.029,13.3005,4.60043,2470.553,2022-7-02T07:20:13Z
2022-07-02T05:21:31Z,42.805,6.029,13.3005,4.60041,2470.53,2022-7-02T07:23:16Z
2022-07-02T05:24:35Z,42.805,6.029,13.3001,4.60038,2470.53,2022-7-02T07:26:20Z
2022-07-02T05:27:38Z,42.805,6.029,13.3006,4.60037,2470.544,2022-7-02T07:29:23Z
2022-07-02T05:30:41Z,42.805,6.029,13.3001,4.60037,2470.507,2022-7-02T07:32:26Z
2022-07-02T05:33:44Z,42.805,6.029,13.3003,4.60039,2470.53,2022-7-02T07:35:29Z
2022-07-02T05:36:47Z,42.805,6.029,13.3005,4.60037,2470.539,2022-7-02T07:38:32Z
2022-07-02T05:39:50Z,42.805,6.029,13.3005,4.60038,2470.544,2022-7-02T07:41:35Z
2022-07-02T05:42:53Z,42.805,6.029,13.3006,4.60038,2470.544,2022-7-02T07:44:38Z
2022-07-02T05:45:56Z,42.805,6.029,13.3006,4.60038,2470.53,2022-7-02T07:47:41Z
2022-07-02T05:48:59Z,42.805,6.029,13.3004,4.60039,2470.567,2022-7-02T07:50:44Z
2022-07-02T05:52:03Z,42.805,6.029,13.3008,4.60039,2470.53,2022-7-02T07:53:48Z
2022-07-02T05:55:06Z,42.805,6.029,13.3003,4.60037,2470.53,2022-7-02T07:56:51Z
2022-07-02T05:58:09Z,42.805,6.029,13.3007,4.60036,2470.544,2022-7-02T07:59:54Z
2022-07-02T06:01:12Z,42.805,6.029,13.3008,4.60038,2470.553,2022-7-02T08:02:57Z
2022-07-02T06:04:15Z,42.805,6.029,13.3006,4.60041,2470.53,2022-7-02T08:06:00Z
2022-07-02T06:07:18Z,42.805,6.029,13.3004,4.60038,2470.591,2022-7-02T08:09:03Z
2022-07-02T06:10:21Z,42.805,6.029,13.3006,4.60037,2470.553,2022-7-02T08:12:06Z
2022-07-02T06:13:24Z,42.805,6.029,13.3003,4.60036,2470.53,2022-7-02T08:15:09Z
2022-07-02T06:16:27Z,42.805,6.029,13.3004,4.60039,2470.553,2022-7-02T08:18:12Z
2022-07-02T06:19:31Z,42.805,6.029,13.3006,4.60039,2470.553,2022-7-02T08:21:16Z
2022-07-02T06:22:34Z,42.805,6.029,13.3003,4.60039,2470.553,2022-7-02T08:24:19Z
2022-07-02T06:25:37Z,42.805,6.029,13.3006,4.60037,2470.577,2022-7-02T08:27:22Z
2022-07-02T06:28:40Z,42.805,6.029,13.3004,4.60037,2470.539,2022-7-02T08:30:25Z
2022-07-02T06:31:43Z,42.805,6.029,13.3007,4.60038,2470.6,2022-7-02T08:33:28Z
2022-07-02T06:34:46Z,42.805,6.029,13.3006,4.60038,2470.591,2022-7-02T08:36:31Z
2022-07-02T06:37:49Z,42.805,6.029,13.3006,4.60039,2470.614,2022-7-02T08:39:34Z
2022-07-02T06:40:52Z,42.805,6.029,13.3005,4.60038,2470.553,2022-7-02T08:42:37Z
2022-07-02T06:43:55Z,42.805,6.029,13.3004,4.60037,2470.577,2022-7-02T08:45:41Z
2022-07-02T06:46:59Z,42.805,6.029,13.3007,4.60042,2470.553,2022-7-02T08:48:44Z
2022-07-02T06:50:02Z,42.805,6.029,13.3004,4.60036,2470.591,2022-7-02T08:51:47Z
2022-07-02T06:53:05Z,42.805,6.029,13.3008,4.60037,2470.6,2022-7-02T08:54:50Z
2022-07-02T06:56:08Z,42.805,6.029,13.3008,4.60038,2470.591,2022-7-02T08:57:53Z
2022-07-02T06:59:11Z,42.805,6.029,13.3006,4.60040,2470.544,2022-7-02T09:00:56Z
2022-07-02T07:02:14Z,42.805,6.029,13.3006,4.60038,2470.6,2022-7-02T09:03:59Z
2022-07-02T07:05:17Z,42.805,6.029,13.3001,4.60039,2470.614,2022-7-02T09:07:02Z
2022-07-02T07:08:20Z,42.805,6.029,13.3008,4.60037,2470.6,2022-7-02T09:10:05Z
2022-07-02T07:11:24Z,42.805,6.029,13.3004,4.60038,2470.577,2022-7-02T09:13:09Z
2022-07-02T07:14:27Z,42.805,6.029,13.3008,4.60037,2470.624,2022-7-02T09:16:12Z
2022-07-02T07:17:30Z,42.805,6.029,13.3007,4.60039,2470.6,2022-7-02T09:19:15Z
2022-07-02T07:20:33Z,42.805,6.029,13.3006,4.60044,2470.6,2022-7-02T09:22:18Z
2022-07-02T07:23:36Z,42.805,6.029,13.3005,4.60039,2470.624,2022-7-02T09:25:21Z
2022-07-02T07:26:39Z,42.805,6.029,13.3004,4.60037,2470.614,2022-7-02T09:28:24Z
2022-07-02T07:29:42Z,42.805,6.029,13.3004,4.60038,2470.624,2022-7-02T09:31:27Z
2022-07-02T07:32:45Z,42.805,6.029,13.3006,4.60038,2470.6,2022-7-02T09:34:30Z
2022-07-02T07:35:48Z,42.805,6.029,13.3008,4.60038,2470.577,2022-7-02T09:37:34Z
2022-07-02T07:38:52Z,42.805,6.029,13.3007,4.60038,2470.577,2022-7-02T09:40:37Z
2022-07-02T07:41:55Z,42.805,6.029,13.3004,4.60038,2470.6,2022-7-02T09:43:40Z
2022-07-02T07:44:58Z,42.805,6.029,13.3004,4.60039,2470.6,2022-7-02T09:46:43Z
2022-07-02T07:48:01Z,42.805,6.029,13.3005,4.60038,2470.577,2022-7-02T09:49:46Z
2022-07-02T07:51:04Z,42.805,6.029,13.3006,4.60039,2470.614,2022-7-02T09:52:49Z
2022-07-02T07:54:07Z,42.805,6.029,13.3005,4.60038,2470.624,2022-7-02T09:55:52Z
2022-07-02T07:57:10Z,42.805,6.029,13.3004,4.60039,2470.614,2022-7-02T09:58:55Z
2022-07-02T08:00:13Z,42.805,6.029,13.3005,4.60039,2470.614,2022-7-02T10:01:58Z
2022-07-02T08:03:17Z,42.805,6.029,13.3009,4.60038,2470.624,2022-7-02T10:05:02Z
2022-07-02T08:06:20Z,42.805,6.029,13.3006,4.60038,2470.6,2022-7-02T10:08:05Z
2022-07-02T08:09:23Z,42.805,6.029,13.3006,4.60045,2470.637,2022-7-02T10:11:08Z
2022-07-02T08:12:26Z,42.805,6.029,13.3006,4.60038,2470.6,2022-7-02T10:14:11Z
2022-07-02T08:15:29Z,42.805,6.029,13.3007,4.60037,2470.637,2022-7-02T10:17:14Z
2022-07-02T08:18:32Z,42.805,6.029,13.3006,4.60037,2470.591,2022-7-02T10:20:17Z
2022-07-02T08:21:35Z,42.805,6.029,13.3004,4.60039,2470.6,2022-7-02T10:23:20Z
2022-07-02T08:24:38Z,42.805,6.029,13.3006,4.60039,2470.577,2022-7-02T10:26:23Z
2022-07-02T08:27:42Z,42.805,6.029,13.3006,4.60038,2470.6,2022-7-02T10:29:27Z
2022-07-02T08:30:45Z,42.805,6.029,13.3005,4.60038,2470.6,2022-7-02T10:32:30Z
2022-07-02T08:33:48Z,42.805,6.029,13.3002,4.60036,2470.591,2022-7-02T10:35:33Z
2022-07-02T08:36:51Z,42.805,6.029,13.3006,4.60041,2470.6,2022-7-02T10:38:36Z
2022-07-02T08:39:54Z,42.805,6.029,13.3002,4.60040,2470.6,2022-7-02T10:41:39Z
2022-07-02T08:42:57Z,42.805,6.029,13.3008,4.60038,2470.6,2022-7-02T10:44:42Z
2022-07-02T08:46:00Z,42.805,6.029,13.3007,4.60038,2470.624,2022-7-02T10:47:45Z
2022-07-02T08:49:03Z,42.805,6.029,13.3007,4.60038,2470.6,2022-7-02T10:50:48Z
2022-07-02T08:52:07Z,42.805,6.029,13.3007,4.60040,2470.6,2022-7-02T10:53:52Z
2022-07-02T08:55:10Z,42.805,6.029,13.3008,4.60039,2470.614,2022-7-02T10:56:55Z
2022-07-02T08:58:13Z,42.805,6.029,13.3006,4.60039,2470.577,2022-7-02T10:59:58Z
2022-07-02T09:01:16Z,42.805,6.029,13.3006,4.60039,2470.6,2022-7-02T11:03:01Z
2022-07-02T09:04:19Z,42.805,6.029,13.3006,4.60041,2470.6,2022-7-02T11:06:04Z
2022-07-02T09:07:22Z,42.805,6.029,13.3006,4.60039,2470.614,2022-7-02T11:09:07Z
2022-07-02T09:10:25Z,42.805,6.029,13.3005,4.60039,2470.6,2022-7-02T11:12:10Z
2022-07-02T09:13:28Z,42.805,6.029,13.3004,4.60038,2470.6,2022-7-02T11:15:13Z
2022-07-02T09:16:31Z,42.805,6.029,13.3006,4.60037,2470.6,2022-7-02T11:18:17Z
2022-07-02T09:19:35Z,42.805,6.029,13.3004,4.60038,2470.567,2022-7-02T11:21:20Z
2022-07-02T09:22:38Z,42.805,6.029,13.3006,4.60037,2470.577,2022-7-02T11:24:23Z
2022-07-02T09:25:41Z,42.805,6.029,13.3004,4.60039,2470.637,2022-7-02T11:27:26Z
2022-07-02T09:28:44Z,42.805,6.029,13.3006,4.60037,2470.577,2022-7-02T11:30:29Z
2022-07-02T09:31:47Z,42.805,6.029,13.3006,4.60037,2470.591,2022-7-02T11:33:32Z
2022-07-02T09:34:50Z,42.805,6.029,13.3005,4.60039,2470.6,2022-7-02T11:36:35Z
2022-07-02T09:37:53Z,42.805,6.029,13.3005,4.60037,2470.577,2022-7-02T11:39:38Z
2022-07-02T09:40:56Z,42.805,6.029,13.3004,4.60037,2470.577,2022-7-02T11:42:42Z
2022-07-02T09:44:00Z,42.805,6.029,13.3005,4.60039,2470.637,2022-7-02T11:45:45Z
2022-07-02T09:47:03Z,42.805,6.029,13.3005,4.60037,2470.577,2022-7-02T11:48:48Z
2022-07-02T09:50:06Z,42.805,6.029,13.3004,4.60036,2470.577,2022-7-02T11:51:51Z
2022-07-02T09:53:09Z,42.805,6.029,13.3004,4.60036,2470.577,2022-7-02T11:54:54Z
2022-07-02T09:56:12Z,42.805,6.029,13.3002,4.60042,2470.6,2022-7-02T11:57:57Z
2022-07-02T09:59:15Z,42.805,6.029,13.3004,4.60037,2470.577,2022-7-02T12:01:00Z
2022-07-02T10:02:18Z,42.805,6.029,13.3003,4.60037,2470.577,2022-7-02T12:04:03Z
2022-07-02T10:05:21Z,42.805,6.029,13.3003,4.60036,2470.577,2022-7-02T12:07:06Z
2022-07-02T10:08:25Z,42.805,6.029,13.3003,4.60037,2470.6,2022-7-02T12:10:10Z
2022-07-02T10:11:28Z,42.805,6.029,13.3005,4.60039,2470.577,2022-7-02T12:13:13Z
2022-07-02T10:14:31Z,42.805,6.029,13.3008,4.60038,2470.591,2022-7-02T12:16:16Z
2022-07-02T10:17:34Z,42.805,6.029,13.3004,4.60036,2470.53,2022-7-02T12:19:19Z
2022-07-02T10:20:37Z,42.805,6.029,13.3002,4.60036,2470.6,2022-7-02T12:22:22Z
2022-07-02T10:23:40Z,42.805,6.029,13.3004,4.60036,2470.591,2022-7-02T12:25:25Z
2022-07-02T10:26:43Z,42.805,6.029,13.3004,4.60037,2470.53,2022-7-02T12:28:28Z
2022-07-02T10:29:46Z,42.805,6.029,13.3005,4.60037,2470.553,2022-7-02T12:31:31Z
2022-07-02T10:32:50Z,42.805,6.029,13.3003,4.60036,2470.577,2022-7-02T12:34:35Z
2022-07-02T10:35:53Z,42.805,6.029,13.3006,4.60038,2470.553,2022-7-02T12:37:38Z
2022-07-02T10:38:56Z,42.805,6.029,13.3007,4.60035,2470.553,2022-7-02T12:40:41Z
2022-07-02T10:41:59Z,42.805,6.029,13.3007,4.60036,2470.577,2022-7-02T12:43:44Z
2022-07-02T10:45:02Z,42.805,6.029,13.3006,4.60036,2470.567,2022-7-02T12:46:47Z
2022-07-02T10:48:05Z,42.805,6.029,13.3006,4.60036,2470.553,2022-7-02T12:49:50Z
2022-07-02T10:51:08Z,42.805,6.029,13.3004,4.60036,2470.577,2022-7-02T12:52:53Z
2022-07-02T10:54:11Z,42.805,6.029,13.3004,4.60037,2470.553,2022-7-02T12:55:56Z
2022-07-02T10:57:15Z,42.805,6.029,13.3002,4.60036,2470.567,2022-7-02T12:59:00Z
2022-07-02T11:00:18Z,42.805,6.029,13.3004,4.60035,2470.53,2022-7-02T13:02:03Z
2022-07-02T11:03:21Z,42.805,6.029,13.3008,4.60036,2470.53,2022-7-02T13:05:06Z
2022-07-02T11:06:24Z,42.805,6.029,13.3004,4.60035,2470.567,2022-7-02T13:08:09Z
2022-07-02T11:09:27Z,42.805,6.029,13.3006,4.60036,2470.567,2022-7-02T13:11:12Z
2022-07-02T11:12:30Z,42.805,6.029,13.3006,4.60036,2470.53,2022-7-02T13:14:15Z
2022-07-02T11:15:33Z,42.805,6.029,13.3007,4.60037,2470.553,2022-7-02T13:17:18Z
2022-07-02T11:18:36Z,42.805,6.029,13.3004,4.60036,2470.53,2022-7-02T13:20:21Z
2022-07-02T11:21:40Z,42.805,6.029,13.3008,4.60036,2470.53,2022-7-02T13:23:25Z
2022-07-02T11:24:43Z,42.805,6.029,13.3006,4.60037,2470.553,2022-7-02T13:26:28Z
2022-07-02T11:27:46Z,42.805,6.029,13.3006,4.60038,2470.507,2022-7-02T13:29:31Z
2022-07-02T11:30:49Z,42.805,6.029,13.3009,4.60037,2470.553,2022-7-02T13:32:34Z
2022-07-02T11:33:52Z,42.805,6.029,13.3004,4.60036,2470.553,2022-7-02T13:35:37Z
2022-07-02T11:36:55Z,42.805,6.029,13.3003,4.60037,2470.53,2022-7-02T13:38:40Z
2022-07-02T11:39:58Z,42.805,6.029,13.3007,4.60037,2470.53,2022-7-02T13:41:43Z
2022-07-02T11:43:01Z,42.805,6.029,13.3006,4.60036,2470.53,2022-7-02T13:44:46Z
2022-07-02T11:46:04Z,42.805,6.029,13.3003,4.60037,2470.53,2022-7-02T13:47:50Z
2022-07-02T11:49:08Z,42.805,6.029,13.3009,4.60037,2470.544,2022-7-02T13:50:53Z
2022-07-02T11:52:11Z,42.805,6.029,13.3005,4.60036,2470.53,2022-7-02T13:53:56Z
2022-07-02T11:55:14Z,42.805,6.029,13.3008,4.60038,2470.53,2022-7-02T13:56:59Z
2022-07-02T11:58:17Z,42.805,6.029,13.3005,4.60037,2470.567,2022-7-02T14:00:02Z
2022-07-02T12:01:20Z,42.805,6.029,13.3007,4.60038,2470.53,2022-7-02T14:03:05Z
2022-07-02T12:04:23Z,42.805,6.029,13.3004,4.60037,2470.553,2022-7-02T14:06:08Z
2022-07-02T12:07:26Z,42.805,6.029,13.3004,4.60037,2470.53,2022-7-02T14:09:11Z
2022-07-02T12:10:29Z,42.805,6.029,13.3009,4.60039,2470.516,2022-7-02T14:12:15Z
2022-07-02T12:13:33Z,42.805,6.029,13.3011,4.60040,2470.553,2022-7-02T14:15:18Z
2022-07-02T12:16:36Z,42.805,6.029,13.3007,4.60039,2470.544,2022-7-02T14:18:21Z
2022-07-02T12:19:39Z,42.805,6.029,13.3009,4.60038,2470.553,2022-7-02T14:21:24Z
2022-07-02T12:22:42Z,42.805,6.029,13.3006,4.60038,2470.553,2022-7-02T14:24:27Z
2022-07-02T12:25:45Z,42.805,6.029,13.3011,4.60042,2470.53,2022-7-02T14:27:30Z
2022-07-02T12:28:48Z,42.805,6.029,13.3007,4.60037,2470.507,2022-7-02T14:30:33Z
2022-07-02T12:31:51Z,42.805,6.029,13.3014,4.60042,2470.53,2022-7-02T14:33:36Z
2022-07-02T12:34:54Z,42.805,6.029,13.3010,4.60042,2470.53,2022-7-02T14:36:39Z
2022-07-02T12:37:58Z,42.805,6.029,13.3013,4.60041,2470.507,2022-7-02T14:39:43Z
2022-07-02T12:41:01Z,42.805,6.029,13.3021,4.60053,2470.507,2022-7-02T14:42:46Z
2022-07-02T12:44:04Z,42.805,6.029,13.3008,4.60039,2470.544,2022-7-02T14:45:49Z
2022-07-02T12:47:07Z,42.805,6.029,13.3009,4.60041,2470.507,2022-7-02T14:48:52Z
2022-07-02T12:50:10Z,42.805,6.029,13.3006,4.60039,2470.507,2022-7-02T14:51:55Z
2022-07-02T12:53:13Z,42.805,6.029,13.3009,4.60041,2470.507,2022-7-02T14:54:58Z
2022-07-02T12:56:16Z,42.805,6.029,13.3013,4.60045,2470.52,2022-7-02T14:58:01Z
2022-07-02T12:59:19Z,42.805,6.029,13.3014,4.60042,2470.507,2022-7-02T15:01:04Z
2022-07-02T13:02:23Z,42.805,6.029,13.3011,4.60042,2470.507,2022-7-02T15:04:08Z
2022-07-02T13:05:26Z,42.805,6.029,13.3028,4.60055,2470.507,2022-7-02T15:07:11Z
2022-07-02T13:08:29Z,42.805,6.029,13.3019,4.60041,2470.507,2022-7-02T15:10:14Z
2022-07-02T13:11:32Z,42.805,6.029,13.3014,4.60049,2470.483,2022-7-02T15:13:17Z
2022-07-02T13:14:35Z,42.805,6.029,13.3008,4.60040,2470.507,2022-7-02T15:16:20Z
2022-07-02T13:17:38Z,42.805,6.029,13.3011,4.60042,2470.507,2022-7-02T15:19:23Z
2022-07-02T13:20:41Z,42.805,6.029,13.3019,4.60040,2470.544,2022-7-02T15:22:26Z
2022-07-02T13:23:44Z,42.805,6.029,13.3018,4.60056,2470.52,2022-7-02T15:25:29Z
2022-07-02T13:26:47Z,42.805,6.029,13.3024,4.60060,2470.53,2022-7-02T15:28:33Z
2022-07-02T13:29:51Z,42.805,6.029,13.3031,4.60078,2470.483,2022-7-02T15:31:36Z
2022-07-02T13:32:54Z,42.805,6.029,13.3026,4.60060,2470.483,2022-7-02T15:34:39Z
2022-07-02T13:35:57Z,42.805,6.029,13.3026,4.60071,2470.52,2022-7-02T15:37:42Z
2022-07-02T13:39:00Z,42.805,6.029,13.3033,4.60054,2470.507,2022-7-02T15:40:45Z
2022-07-02T13:42:03Z,42.805,6.029,13.3028,4.60063,2470.52,2022-7-02T15:43:48Z
2022-07-02T13:45:06Z,42.805,6.029,13.3022,4.60054,2470.483,2022-7-02T15:46:51Z
2022-07-02T13:48:09Z,42.805,6.029,13.3025,4.60074,2470.483,2022-7-02T15:49:54Z
2022-07-02T13:51:12Z,42.805,6.029,13.3025,4.60059,2470.483,2022-7-02T15:52:58Z
2022-07-02T13:54:16Z,42.805,6.029,13.3025,4.60077,2470.507,2022-7-02T15:56:01Z
2022-07-02T13:57:19Z,42.805,6.029,13.3024,4.60095,2470.544,2022-7-02T15:59:04Z
2022-07-02T14:00:22Z,42.805,6.029,13.3021,4.60084,2470.507,2022-7-02T16:02:07Z
2022-07-02T14:03:25Z,42.805,6.029,13.3026,4.60069,2470.497,2022-7-02T16:05:10Z
2022-07-02T14:06:28Z,42.805,6.029,13.3012,4.60045,2470.483,2022-7-02T16:08:13Z
2022-07-02T14:09:31Z,42.805,6.029,13.3021,4.60054,2470.474,2022-7-02T16:11:16Z
2022-07-02T14:12:34Z,42.805,6.029,13.3021,4.60069,2470.497,2022-7-02T16:14:19Z
2022-07-02T14:15:37Z,42.805,6.029,13.3022,4.60064,2470.474,2022-7-02T16:17:22Z
2022-07-02T14:18:41Z,42.805,6.029,13.3021,4.60051,2470.483,2022-7-02T16:20:26Z
2022-07-02T14:21:44Z,42.805,6.029,13.3028,4.60067,2470.507,2022-7-02T16:23:29Z
2022-07-02T14:24:47Z,42.805,6.029,13.3019,4.60077,2470.507,2022-7-02T16:26:32Z
2022-07-02T14:27:50Z,42.805,6.029,13.3021,4.60078,2470.52,2022-7-02T16:29:35Z
2022-07-02T14:30:53Z,42.805,6.029,13.3021,4.60059,2470.507,2022-7-02T16:32:38Z
2022-07-02T14:33:56Z,42.805,6.029,13.3030,4.60059,2470.497,2022-7-02T16:35:41Z
2022-07-02T14:36:59Z,42.805,6.029,13.3025,4.60069,2470.52,2022-7-02T16:38:44Z
2022-07-02T14:40:02Z,42.805,6.029,13.3024,4.60067,2470.52,2022-7-02T16:41:47Z
2022-07-02T14:43:06Z,42.805,6.029,13.3024,4.60079,2470.483,2022-7-02T16:44:51Z
2022-07-02T14:46:09Z,42.805,6.029,13.3024,4.60095,2470.507,2022-7-02T16:47:54Z
2022-07-02T14:49:12Z,42.805,6.029,13.3023,4.60077,2470.483,2022-7-02T16:50:57Z
2022-07-02T14:52:15Z,42.805,6.029,13.3024,4.60086,2470.483,2022-7-02T16:54:00Z
2022-07-02T14:55:18Z,42.805,6.029,13.3026,4.60091,2470.497,2022-7-02T16:57:03Z
2022-07-02T14:58:21Z,42.805,6.029,13.3026,4.60058,2470.46,2022-7-02T17:00:06Z
2022-07-02T15:01:24Z,42.805,6.029,13.3029,4.60058,2470.497,2022-7-02T17:03:09Z
2022-07-02T15:04:27Z,42.805,6.029,13.3017,4.60077,2470.483,2022-7-02T17:06:12Z
2022-07-02T15:07:30Z,42.805,6.029,13.3020,4.60074,2470.437,2022-7-02T17:09:16Z
2022-07-02T15:10:34Z,42.805,6.029,13.3024,4.60074,2470.483,2022-7-02T17:12:19Z
2022-07-02T15:13:37Z,42.805,6.029,13.3019,4.60067,2470.483,2022-7-02T17:15:22Z